User: anonymous   Login
Location: Palmerston North
(40.3500°S, 175.6170°E)
Time: 00:52:53
(UTC+13:00)
Language:

Atlas Centaur 2 - Orbit

View from above orbital plane
View from above orbital plane
View from above satellite
View from above satellite

Ground track
Ground track

The orbit data is extracted from the following two-line orbital elements,

1   694U 63047A   19078.51485121 +.00000570 +00000-0 +59665-4 0  9998
2   694 030.3568 240.9287 0586398 188.5079 170.5189 14.02445567772662
Epoch (UTC): 19 March 2019 12:21:23
Eccentricity: 0.0586398
inclination: 30.3568°
perigee height: 459 km
apogee height: 1311 km
right ascension of ascending node: 240.9287°
argument of perigee: 188.5079°
revolutions per day: 14.02445567
mean anomaly at epoch: 170.5189°
orbit number at epoch: 77266

The dashed part of the orbit path shows where the satellite is in the earth's shadow,  

DLR